DW5914 Weather Reports


Display with metric or nautical units.
time (UTC)temp
F
wind
direction
speed
MPH
gust
MPH
rain 1hr
in
rain 24hr
in
rain mn
in
humidity
%
barometer
mb
20260503054531 62 9 5.0 8.0 0.00 0.00 0.00 64 1016.0
20260503053024 61 42 4.0 7.0 0.00 0.00 0.00 65 1016.1
20260503051523 62 44 4.0 7.0 0.00 0.00 0.00 64 1016.1
20260503050034 62 15 4.0 9.0 0.00 0.00 0.00 63 1016.1
20260503044522 61 29 5.0 9.0 0.00 0.00 0.00 64 1016.0
20260503043021 61 30 5.0 7.0 0.00 0.00 0.00 64 1015.9
20260503041531 61 52 5.0 8.0 0.00 0.00 0.00 64 1015.8
20260503040020 61 12 5.0 8.0 0.00 0.00 0.00 63 1015.6
20260503034520 61 12 4.0 10.0 0.00 0.00 0.00 65 1015.4
20260503033020 61 341 5.0 10.0 0.00 0.00 0.00 65 1015.3
20260503031519 61 5 4.0 14.0 0.00 0.00 0.00 64 1015.2
20260503030023 60 40 5.0 8.0 0.00 0.00 0.00 67 1015.1
20260503024519 61 41 4.0 10.0 0.00 0.00 0.00 67 1015.1
20260503023016 61 92 5.0 8.0 0.00 0.00 0.00 67 1015.2
20260503021521 61 9 4.0 9.0 0.00 0.00 0.00 68 1015.2
20260503020016 61 57 4.0 9.0 0.00 0.00 0.00 69 1015.2
20260503014514 60 16 4.0 9.0 0.00 0.00 0.00 70 1015.4
20260503013013 60 29 4.0 9.0 0.00 0.00 0.00 72 1015.4
20260503011512 60 315 5.0 10.0 0.00 0.00 0.00 72 1015.6
20260503010012 61 355 4.0 12.0 0.00 0.00 0.00 69 1015.6
20260503004511 62 5 4.0 13.0 0.00 0.00 0.00 68 1015.7
20260503003009 62 35 4.0 9.0 0.00 0.00 0.00 68 1015.8
20260503001511 62 348 5.0 10.0 0.00 0.00 0.00 67 1015.8
20260503000005 61 5 5.0 8.0 0.00 0.00 0.00 70 1015.9
20260502234503 60 44 5.0 10.0 0.00 0.00 0.00 74 1016.1
20260502233002 60 21 6.0 12.0 0.00 0.00 0.00 74 1016.3
20260502231502 60 348 5.0 10.0 0.00 0.00 0.00 73 1016.2
20260502230100 61 5 3.0 11.0 0.00 0.00 0.00 71 1016.5
20260502224604 61 27 5.0 12.0 0.00 0.00 0.00 72 1016.6
20260502223057 61 355 5.0 11.0 0.00 0.00 0.00 71 1016.8
20260502221552 61 78 5.0 11.0 0.00 0.00 0.00 71 1017.2
20260502220050 60 13 6.0 14.0 0.00 0.00 0.00 75 1017.3
20260502214547 59 346 8.0 16.0 0.00 0.00 0.00 75 1017.5
20260502213045 59 319 4.0 12.0 0.00 0.00 0.00 77 1017.7
20260502211543 59 68 5.0 10.0 0.00 0.00 0.00 78 1017.9
20260502210045 58 343 4.0 14.0 0.00 0.00 0.00 79 1018.2
20260502204544 59 360 3.0 8.0 0.00 0.00 0.00 80 1018.3
20260502203038 58 338 3.0 10.0 0.00 0.00 0.00 81 1018.3
20260502201548 58 345 5.0 8.0 0.00 0.00 0.00 80 1018.4
20260502200037 57 320 4.0 11.0 0.00 0.00 0.00 82 1018.5
20260502194535 57 51 5.0 10.0 0.00 0.00 0.00 82 1018.8
20260502193035 58 331 2.0 11.0 0.00 0.00 0.00 82 1018.8
20260502191534 59 5 4.0 8.0 0.00 0.00 0.00 81 1018.9
20260502190036 57 34 2.0 14.0 0.00 0.00 0.00 83 1019.1
20260502184543 58 293 3.0 11.0 0.00 0.00 0.00 82 1019.2
20260502183035 58 41 3.0 5.0 0.00 0.00 0.00 82 1019.3
20260502181528 57 178 3.0 10.0 0.00 0.00 0.00 83 1019.5
20260502163017 55 54 5.0 12.0 0.00 0.00 0.00 88 1019.8
20260502161513 55 49 4.0 11.0 0.00 0.00 0.00 89 1019.7
20260502151510 53 337 6.0 15.0 0.00 0.00 0.00 91 1019.7
20260502123055 53 12 0.0 0.0 0.00 0.00 0.00 88 1019.0
20260502121556 53 123 0.0 6.0 0.00 0.00 0.00 89 1019.0
20260502114553 52 148 1.0 4.0 0.00 0.00 0.00 88 1018.9
20260502113051 53 5 0.0 5.0 0.00 0.00 0.00 86 1018.8
20260502111552 53 255 0.0 3.0 0.00 0.00 0.00 85 1018.7
20260502110053 53 204 0.0 3.0 0.00 0.00 0.00 85 1018.8
20260502104548 54 53 0.0 5.0 0.00 0.00 0.00 84 1018.8
20260502103048 54 44 1.0 4.0 0.00 0.00 0.00 84 1018.6
20260502101552 53 75 1.0 6.0 0.00 0.00 0.00 87 1018.5
20260502071526 54 163 3.0 4.0 0.00 0.00 0.00 83 1018.1
20260502070024 54 69 0.0 2.0 0.00 0.00 0.00 83 1017.9
20260502064523 53 167 2.0 4.0 0.00 0.00 0.00 85 1018.0
20260502063028 53 186 0.0 3.0 0.00 0.00 0.00 85 1017.7